Location: Days
(41.3591°N, 106.7339°W)
Time: 11:49:21
(UTC+00:00)

RS-15 - Pass Details

Date: 02 July 2022
Orbit: 1881 x 2163 km, 64.8° (Epoch: 13 August)

Event Time Altitude Azimuth Distance (km) Brightness Sun altitude
Rises 03:14:29 0° 308° (NW) 5,670 13.5 -5.5°
Reaches altitude 10° 03:19:06 10° 322° (NW) 4,683 11.6 -6.2°
Maximum altitude 03:28:46 25° 14° (NNE) 3,590 9.7 -7.6°
Drops below altitude 10° 03:38:20 10° 67° (ENE) 4,643 9.8 -8.9°
Sets 03:42:51 0° 80° (E) 5,613 10.1 -9.6°
